Terminal Aerodrome Forecast
Issued by NWS

Home | Current Version | Previous Version | Graphics & Text | Print | Product List | Glossary On
Versions: 1 2 3 4 5 6 7 8 9 10 11 12 13 14 15 16 17 18 19 20
382
FTUS43 KABR 242320
TAFMBG
TAF
KMBG 242320Z 2500/2524 16019G30KT P6SM SKC
     FM250600 13020G28KT P6SM VCSH BKN200
     FM251200 14011KT P6SM SCT200
     FM251400 25011KT P6SM SCT200
     FM252000 28015G24KT P6SM SCT200=

USA.gov is the U.S. government's official web portal to all federal, state and local government web resources and services.